Showing default

DJIBOUTI-1B, 62402

Orbit data source: Space-Track

DJIBOUTI-1B, 62402 is a Djibouti payload satellite in LEO that was launched on Sat, 21 Dec 2024 UTC via an FALCON 9 launch vehicle from the Air Force Western Test Range (AFWTR). Payload-class satellites include a variety of spacecraft equipped with specific instruments for various scientific and technological missions. These include communications satellites like Starlink; space stations such as the ISS; scientific satellites like the Hubble; Earth observation satellites from companies like Planet Labs, Umbra, and HawkEye 360; GPS; miniature CubeSats for education and research; and military/defense satellites.

Loading next visibility...
Identifier
62402, 2024-247AB
Orbit
LEO
Country
Flag of DJDJ / DJI
Related business
Manufacturer
Montpellier
Mission
Operational Civil Technology
Bus & Motor
CUBESAT 1U, Unknown motor
Mass
1 kg wet, 1 kg dry
Launch date (UTC)
2024-12-21 (10 months ago)
Launch vehicle
FALCON 9
Launch site
Air Force Western Test Range (AFWTR)
Object type
Payload
Rocket body
Debris
Shape & HBR
Box, 0.1 m
Radar Cross Section
0.015 m², Small (<0.1 m²)

Expand to show TLE details & history
Last TLE update: 14 hours ago

TLE from 14 hours ago
0 DJIBOUTI-1B
1 62402U 24247AB  25297.88875037  .00034065  00000-0  98938-3 0  9992
2 62402  44.9758 123.1892 0008852 228.6956 131.3168 15.34924927 47145
Epoch: 2025-10-24T21:19Z
TLE epoch observation values (Epoch: 2025-10-24T21:19:48.031Z)
Latitude
-0.00004°
Longitude
129.71184°
Altitude
465.139 km
Speed
7.633 km/s
True Right ascension
08h 12m 45s
True Declination
0° 00' 00"
Sunlit
Object was in daylight at epoch
Visualization orbit readout
Latitude
Unknown
Longitude
Unknown
Altitude
Unknown
Speed
Unknown
Apparent Right ascension
Unknown
Apparent Declination
Unknown
Sunlit
N/A
Visualization observer readout
Local Sidereal Time
06:14:11
Azimuth
Unknown
Elevation
Unknown
Doppler factor
Unknown
Orbital elements
Apogee altitude
468.817 km
Perigee altitude
456.706 km
Semi-major axis
6,840.899 km
Eccentricity
0.00089
Inclination
44.9758°
RAAN
123.1892°
Arg. of periapsis
228.6956°
True anomaly
131.39293°
Mean anomaly
131.3168°
Eccentric anomaly
131.35487°
Mean motion
3.83595 °/min
Orbital period
93.85 mins
BSTAR
0.00098938
Loading maneuver chart data...
Computing Atmospheric mass density...
Loading historical data...
Loading historical data...
Loading historical data...
Loading historical data...
Loading historical data...
Loading historical data...
Loading historical data...

Documentation

Showing up to 5 results
|